STARLINK-1201, 45182

Orbit data source: Space-Track

STARLINK-1201, 45182 is a payload satellite owned by SpaceX/Seattle (US) in LEO that was launched on Mon, 17 Feb 2020 UTC via an FALCON 9 launch vehicle from the Air Force Eastern Test Range (AFETR). Payload-class satellites include a variety of spacecraft equipped with specific instruments for various scientific and technological missions. These include communications satellites like Starlink; space stations such as the ISS; scientific satellites like the Hubble; Earth observation satellites from companies like Planet Labs, Umbra, and HawkEye 360; GPS; miniature CubeSats for education and research; and military/defense satellites.

Not visible in the next 10 days
Identifier
45182, 2020-012E
Orbit
LEO
Country
Flag of USUS
Related business
Manufacturer
SpaceX/Seattle
Mission
Partially operational Commercial Communications
Bus & Motor
STARLINK, Unknown motor
Mass
260 kg wet, ~248 kg dry
Launch date (UTC)
2020-02-17 (6 years ago)
Launch vehicle
FALCON 9
Launch site
Air Force Eastern Test Range (AFETR)
Object type
Payload
Rocket body
Debris
Shape & HBR
Box + 1 Pan, 4.4 m
Radar Cross Section
13.562 m², Large (>1 m²)

Expand to show TLE details & history
Last TLE update: 5 hours ago

TLE from 5 hours ago
0 STARLINK-1201
1 45182U 20012E   25261.37754791  .00654563  23297-3  73478-3 0  9991
2 45182  53.0358  23.3721 0004313 352.8208   7.2763 16.08778680309786
Epoch: 2025-09-18T09:03Z
TLE epoch observation values (Epoch: 2025-09-18T09:03:40.139Z)
Latitude
0.00002°
Longitude
-110.08515°
Altitude
248.276 km
Speed
7.761 km/s
True Right ascension
01h 33m 29s
True Declination
0° 00' 00"
Sunlit
Object was in full shadow at epoch
Visualization orbit readout
Latitude
Unknown
Longitude
Unknown
Altitude
Unknown
Speed
Unknown
Apparent Right ascension
Unknown
Apparent Declination
Unknown
Sunlit
N/A
Visualization observer readout
Local Sidereal Time
06:31:11
Azimuth
Unknown
Elevation
Unknown
Doppler factor
Unknown
Orbital elements
Apogee altitude
253.34 km
Perigee altitude
247.622 km
Semi-major axis
6,628.618 km
Eccentricity
0.00043
Inclination
53.0358°
RAAN
23.3721°
Arg. of periapsis
352.8208°
True anomaly
7.28256°
Mean anomaly
7.2763°
Eccentric anomaly
7.27943°
Mean motion
4.02169 °/min
Orbital period
89.51 mins
BSTAR
0.00073478
Loading maneuver chart data...
Computing Atmospheric mass density...

Documentation

Showing up to 5 results
|